CZ-6A DEB

Satellite information

Favourite Embed

Satellite Type and Status

DEBRISIN ORBIT

Key statistics

Satellite CZ-6A DEB at a glance.

Uptime

1023

Days in orbit

Revolutions

≈ 13.9

Per day

Orbit

SSO

Sun Synchronous Orbit

Inclination

98.9

Latest

Satellite identification and parameters

Extended collection of information and parameters for CZ-6A DEB.

Object identification

Identified? True

Debris? True

Object name: CZ-6A DEB

International designator: 2022-151AGY

Object number (NORAD): 56672

Object ID (CCSDS): 56672

Country: PEOPLES REPUBLIC OF CHINA (PRC)

Current information (Y/N): Y

RCS size: SMALL

Orbital parameters

Period: 103.86 minutes

Inclination: 98.8602 deg

SMA: 7319.14 km

Apoapsis: 1054.727 km

Periapsis: 827.283 km

RAAN: 201.4968 deg

Eccentricy: 0.01553756

Argument of periapsis: 188.1198 deg

Mean anomaly: 171.7441 deg

Mean motion: 13.86477051 rev/day

Mean motion (dot): 0.00000492 rev/day2

B* drag term: 0.0004183365 1/REarth

Two-line elements (TLE)

Creation date: Aug. 30, 2025, 3:38 a.m.

Reference frame: TEME

Reference center: EARTH

Epoch: Aug. 29, 2025, 8 a.m. UTC

TLE line 0: 0 CZ-6A DEB

TLE line 1: 1 56672U 22151AGY 25241.33362173 .00000492 00000-0 41834-3 0 9997

TLE line 2: 2 56672 98.8602 201.4968 0155376 188.1198 171.7441 13.86477051123782

Live tracking on map

Real-time ground track for satellite CZ-6A DEB.

In-orbit conjunctions

A list of the most updated potential collisions computed for object CZ-6A DEB.

Target Orbit TCA Probability of collision Miss distance Type
CZ-6A DEB LEO 2025-07-21 09:59:36 0.0004114 188.0 (m) DEBRIS
SL-8 R/B LEO 2025-06-29 03:45:53 0.002829527 62.0 (m) ROCKET BODY
COSMOS 1275 DEB LEO 2025-02-24 08:03:37 0.0001238595 112.0 (m) DEBRIS
COSMOS 1372 LEO 2024-06-03 16:59:08 0.002063335 72.0 (m) PAYLOAD

Associated space launch

Chinese satellite reported for atmospheric/ocean/environmental/spatial parameter research purposes, details TBD.

CZ-6A DEB was lifted into orbit during the mission ‘Long March 6A | Yunhai 3’, on board a Long March 6A space rocket.

The launch took place on Nov. 11, 2022, 10:52 p.m. from Launch Complex 9A.

For more information about the launch, click the button.

Launch to space Long March 6A | Yunhai 3
Long March 6A | Yunhai 3

Agency: N/A

Status: Launch Successful

Launch date: Nov. 11, 2022, 10:52 p.m. UTC

Rocket: Long March 6A

Launch pad: Launch Complex 9A

Location: Taiyuan Satellite Launch Center, People's Republic of China

...

Latest news about this satellite

There are no fresh news available about this satellite. Check back as we update our databases every day.


Newsletter sign-up

Weekly statistics, charts and insights to help you stay on top of the space industry.